EHI
0 0 0 0 0 0 0 0 0 0 0 0 0 0 0 0 0 1 2 2 2 2 1 2 3 1 0 1 1 0 0 0 0 0 0 0 0 0 0 0 0 0 0
0 0 0 0 0 0 0 0 0 0 0 0 0 0 0 0 0 0 1 1 1 1 1 1 2 1 0 1 1 0 0 0 0 0 0 0 1 1 0 0 0 0 0
0 0 0 1 1 0 0 0 0 0 0 0 0 0 0 0 0 0 0 0 0 0 0 0 0 0 0 1 1 0 0 0 0 0 0 0 1 1 0 0 0 0 0
0 0 1 2 2 1 0 0 0 0 0 0 0 0 0 0 0 0 0 0 0 0 0 0 0 0 0 0 0 0 1 1 0 0 0 0 1 1 0 0 0 0 0
0 0 2 4 3 1 0 0 0 0 0 0 0 0 0 0 0 0 0 0 0 0 0 0 0 0 0 0 0 0 1 1 0 0 0 0 0 0 0 0 0 0 0
0 1 3 5 4 2 1 1 0 0 0 0 0 0 0 0 0 0 0 0 0 0 0 0 0 0 0 0 0 0 0 0 0 0 0 0 0 0 0 0 0 0 0
0 1 4 7 7 5 3 2 1 0 0 0 0 0 0 0 0 0 0 0 0 0 0 0 0 0 0 0 0 0 0 0 0 0 0 0 0 0 0 0 0 0 0
1 2 5 9 10 8 5 3 1 0 0 0 0 0 0 0 0 0 0 0 0 0 0 0 0 0 0 0 0 0 0 0 0 0 0 0 0 0 0 0 0 0 0
4 3 4 7 10 10 7 5 2 0 0 0 0 0 0 0 0 0 0 0 0 0 0 0 0 0 0 0 0 0 0 0 0 0 0 0 0 0 0 0 0 0 0
10 6 3 3 5 6 7 7 5 2 0 0 0 0 0 0 0 0 0 0 0 0 0 0 0 0 0 0 0 0 0 0 0 0 0 0 0 0 0 0 0 0 0
19 12 5 2 2 3 4 6 5 2 0 0 0 0 0 0 0 0 0 0 0 0 0 0 0 0 0 0 0 0 0 0 0 0 0 0 0 0 0 0 0 0 0
33 22 10 5 4 3 2 2 2 1 0 0 0 0 0 0 0 0 0 0 0 0 0 0 0 0 0 0 0 0 0 0 0 0 0 0 0 0 0 0 0 0 0
45 35 19 9 5 2 1 0 0 0 0 0 0 0 0 0 0 0 0 0 0 0 0 0 0 0 0 0 0 0 0 0 0 0 0 0 0 0 0 0 0 0 0
49 42 30 16 6 2 1 2 2 0 0 0 0 0 0 0 0 0 0 0 0 0 0 0 0 0 0 0 0 0 0 0 0 0 0 0 0 0 0 0 0 0 0
35 36 35 27 16 9 8 8 5 2 0 0 0 0 0 0 0 0 0 0 0 0 0 0 0 0 0 0 0 0 0 0 0 0 0 0 0 0 0 0 0 0 0
12 18 27 31 27 22 21 18 12 5 1 0 0 0 0 0 0 0 0 0 0 0 0 0 0 0 0 0 0 0 0 0 0 0 0 0 0 0 0 0 0 0 0
1 5 12 19 24 27 27 24 17 10 4 1 0 0 0 0 0 0 0 0 0 0 0 0 0 0 0 0 0 0 0 0 0 0 0 0 0 0 0 0 0 0 0
2 2 3 6 12 18 21 20 17 15 10 4 1 0 0 0 0 0 0 0 0 0 0 0 0 0 0 0 0 0 0 0 0 0 0 0 0 0 0 0 0 0 0
2 2 2 3 6 9 11 11 12 16 16 10 4 1 1 0 0 0 0 0 0 0 0 0 0 0 0 0 0 0 0 0 0 0 0 0 0 0 0 0 0 0 0
1 1 2 4 6 7 6 6 8 14 19 17 9 4 2 1 1 0 0 0 0 0 0 0 0 0 0 0 0 0 0 0 0 0 0 0 0 0 0 0 0 0 0
0 1 2 4 5 6 7 7 10 14 19 19 14 8 5 3 2 1 0 0 0 0 0 0 0 0 0 0 0 0 0 0 0 0 0 0 0 0 0 0 0 0 0
0 0 1 2 4 5 5 8 12 14 17 18 15 11 8 5 3 1 0 0 0 0 0 0 0 0 0 0 0 0 0 0 0 0 0 0 0 0 0 0 0 0 0
0 0 0 1 2 3 3 6 10 12 15 17 17 14 10 7 5 2 0 0 0 0 0 0 0 0 0 0 0 0 0 0 0 0 0 0 0 0 0 0 0 0 0
0 0 0 0 1 1 2 4 8 11 14 18 19 16 11 6 3 1 0 0 0 0 0 0 0 0 0 0 0 0 0 0 0 0 0 0 0 0 0 0 0 0 0
0 0 0 0 0 0 0 3 7 10 12 16 18 14 9 4 2 1 0 0 0 0 0 0 0 0 0 0 0 0 0 0 0 0 0 0 0 0 0 0 0 0 0
0 0 0 0 0 0 0 2 6 9 10 13 14 12 7 3 2 2 1 0 0 0 0 0 0 0 0 0 0 0 0 0 0 0 0 0 0 0 0 0 0 0 0
Wind_Speed
6 7 12 13 14 14 13 13 13 13 13 13 13 12 12 12 11 11 11 11 10 9 9 9 9 9 9 9 9 8 8 8 8 9 8 8 8 8 8 7 7 5 8
10 10 14 14 14 13 13 13 13 13 12 12 12 12 12 11 11 11 10 10 10 9 9 8 8 9 8 8 8 8 8 8 8 8 7 7 8 8 8 8 7 4 7
13 11 12 14 14 13 13 13 12 12 12 12 12 11 11 11 11 10 10 10 10 9 9 9 8 8 8 8 7 8 8 7 7 7 7 3 4 8 8 8 7 7 7
14 11 11 15 14 13 13 12 12 12 12 11 11 11 10 10 10 10 10 10 10 9 9 8 8 7 7 6 6 6 6 6 6 7 4 2 3 7 8 8 7 7 7
13 10 11 15 14 13 13 12 12 12 11 11 10 10 10 9 9 9 9 9 9 9 8 8 7 7 6 6 5 5 5 5 6 6 4 3 2 6 8 8 7 7 7
12 10 11 15 14 13 12 12 12 12 11 11 10 10 9 9 9 9 9 9 8 8 8 7 6 6 6 5 4 4 4 4 5 3 3 2 2 5 7 8 7 7 7
12 10 11 15 14 13 13 12 12 12 11 11 10 10 9 9 8 8 8 8 8 8 7 6 6 5 5 4 3 3 2 3 3 3 3 2 2 6 7 7 7 7 7
14 12 11 15 15 14 13 13 12 12 12 11 11 10 9 9 8 8 8 7 6 6 6 5 4 4 4 3 3 2 2 2 4 3 3 2 3 6 7 6 6 6 7
13 12 9 9 11 14 13 13 13 12 12 11 11 11 10 9 9 8 8 7 6 5 5 4 3 3 2 1 1 2 3 4 3 3 3 2 3 5 6 6 6 6 6
11 11 10 8 8 7 8 13 13 13 12 12 12 11 11 10 9 9 8 7 7 6 5 4 3 2 1 1 0 1 4 5 3 3 2 2 5 5 6 5 5 5 5
11 9 10 10 9 8 7 11 12 13 13 12 10 12 10 5 5 5 7 8 8 7 6 5 4 3 3 2 3 2 4 2 3 2 1 4 6 6 6 5 5 5 5
13 12 10 11 11 9 8 7 5 6 6 6 5 6 5 4 4 6 7 10 9 8 7 6 6 5 3 2 3 3 1 3 3 2 2 6 6 6 6 5 5 5 5
14 13 12 12 11 10 7 6 4 4 4 5 6 6 5 4 4 4 3 5 5 6 4 4 4 3 2 2 2 0 1 3 3 2 3 6 6 6 6 5 5 5 5
11 12 13 13 11 11 8 7 6 5 5 5 7 7 5 4 4 4 4 4 3 2 3 3 2 4 4 4 3 2 3 3 3 2 3 6 6 6 6 5 5 5 5
9 10 12 12 12 11 9 8 8 7 7 8 7 7 8 6 6 5 5 4 4 3 4 4 4 4 4 4 3 4 5 5 5 4 3 6 6 5 5 5 5 5 5
2 5 8 11 11 11 10 9 8 8 7 7 7 8 9 7 7 6 6 5 5 5 5 4 5 4 4 3 4 5 6 6 5 5 3 4 6 5 5 6 6 5 5
5 3 2 7 9 10 10 10 8 7 7 7 7 8 9 8 8 7 6 6 6 6 5 3 3 3 3 3 4 5 5 5 6 5 4 3 3 5 6 6 6 6 6
8 8 6 3 4 7 8 8 7 7 7 7 7 7 9 9 8 7 6 6 6 4 4 3 3 3 3 2 2 2 3 4 5 5 4 4 3 3 4 6 6 5 5
9 9 9 7 4 3 5 6 7 7 8 7 6 6 7 8 8 6 5 5 5 4 3 4 2 3 3 3 2 2 2 3 4 5 4 5 4 4 3 5 7 6 6
10 9 10 9 7 5 3 2 3 5 6 6 6 6 7 6 7 6 4 5 5 4 3 3 3 2 2 2 2 1 0 1 2 3 5 5 5 5 5 4 4 4 6
11 10 9 10 9 6 3 1 3 4 4 5 5 5 5 5 6 6 5 5 4 4 4 4 3 3 2 2 3 2 2 1 2 3 3 4 5 6 5 5 4 3 3
11 10 9 8 8 7 4 3 2 2 2 2 3 4 5 5 5 6 6 5 5 4 4 4 3 3 2 2 3 2 1 3 3 2 2 4 5 5 6 7 5 5 4
12 11 9 9 9 8 7 3 1 1 1 2 2 3 4 5 5 5 5 5 5 5 5 4 4 5 3 1 2 4 3 4 2 3 2 2 4 4 5 5 6 6 6
11 10 9 8 8 8 6 3 1 2 4 4 4 3 3 4 4 5 5 5 5 4 4 5 4 4 4 3 2 2 3 4 3 2 2 1 2 4 5 4 6 6 6
10 10 9 9 9 8 7 4 2 2 2 2 3 5 4 3 4 4 5 4 4 4 4 4 3 3 3 4 3 2 2 2 2 2 2 2 2 2 3 4 4 5 7
10 9 9 9 9 9 7 6 3 1 2 4 5 5 4 3 2 3 4 4 4 4 4 4 4 4 4 4 3 3 3 3 3 3 3 3 2 3 2 3 3 4 5
Wind_Direction
153 161 148 140 133 129 127 124 121 118 114 110 107 104 101 98 95 93 93 92 92 92 92 95 96 97 99 99 98 98 101 100 95 90 86 86 83 79 73 87 95 96 101
151 154 148 142 136 132 130 127 124 120 117 114 111 108 106 104 101 99 98 97 97 95 94 95 97 96 97 100 98 97 94 91 88 88 87 86 86 84 80 86 98 104 107
146 149 147 144 140 137 135 131 128 124 120 117 115 112 109 107 105 104 103 102 100 99 97 96 97 97 97 97 96 92 90 90 91 91 94 89 88 91 88 88 93 100 108
146 148 149 148 144 141 139 136 133 129 125 121 119 116 113 110 107 106 105 104 104 101 99 98 97 98 101 101 98 92 87 83 85 94 91 88 84 94 92 92 91 95 103
146 149 153 151 148 146 144 141 137 134 131 128 125 122 119 115 112 109 108 107 106 104 102 100 101 102 105 106 105 98 89 84 90 94 96 86 76 97 95 91 88 92 98
148 149 155 154 153 151 149 146 143 141 139 137 135 131 127 123 119 116 114 112 110 109 106 103 105 109 112 112 109 102 92 86 93 99 110 104 88 100 98 96 93 92 97
149 152 159 157 157 155 154 153 151 150 148 147 146 142 138 134 130 125 119 116 114 113 111 108 108 116 121 121 114 98 78 72 104 117 124 115 115 109 103 99 95 97 101
153 157 161 163 161 161 161 160 159 159 158 157 155 153 150 148 143 137 131 126 122 119 118 116 117 124 130 129 116 90 62 46 119 136 132 129 136 118 112 107 101 99 102
156 159 161 165 166 167 167 167 166 167 168 166 164 163 161 157 155 152 149 146 142 140 139 138 140 145 149 146 116 63 49 71 119 146 149 150 154 134 124 120 111 103 101
159 164 165 167 167 168 171 175 174 175 175 174 172 173 171 169 168 167 166 167 166 166 168 171 179 191 205 229 256 46 64 78 108 130 131 161 153 140 131 128 123 117 110
168 173 173 173 174 174 175 183 180 181 182 181 180 182 177 172 175 178 185 186 185 185 191 201 215 230 252 284 293 343 69 98 116 122 137 149 143 138 135 135 137 133 126
180 183 182 183 182 179 184 180 179 183 182 180 179 182 171 174 190 196 206 202 199 199 206 218 232 248 265 295 310 343 92 136 130 144 158 151 146 143 139 139 143 142 140
184 186 187 189 186 184 186 178 182 182 180 183 186 185 178 182 198 207 204 212 211 209 214 234 245 256 259 265 282 332 145 151 152 156 161 153 149 147 146 146 150 150 149
179 190 191 191 189 190 187 183 184 186 188 193 196 192 185 190 199 195 198 202 205 208 209 222 232 245 255 256 243 215 163 154 151 146 166 153 151 153 154 153 156 158 157
186 192 190 190 190 190 187 188 188 192 194 197 198 197 191 191 193 191 198 202 211 212 212 215 220 231 239 240 214 177 165 159 155 161 161 157 155 158 162 167 166 167 166
206 202 192 192 191 188 189 192 191 193 195 195 199 200 194 192 191 191 197 200 210 215 217 214 213 213 215 193 161 150 156 159 163 167 169 164 159 160 171 174 174 171 167
10 356 259 207 195 193 195 195 193 192 191 195 201 203 199 194 192 191 195 198 207 211 213 209 203 190 178 158 139 139 149 159 167 175 172 167 168 172 172 175 176 181 183
17 10 358 305 228 211 206 201 194 191 190 198 202 201 202 200 192 182 187 196 196 190 189 182 171 154 153 145 144 147 144 156 174 180 178 177 177 178 182 180 179 185 191
15 9 1 353 347 273 233 210 201 192 190 194 197 199 198 200 193 176 180 184 172 164 171 171 152 143 148 153 163 156 154 158 170 180 184 190 190 185 185 188 182 185 192
14 10 5 356 352 334 298 241 211 191 190 189 190 193 188 190 183 168 170 171 154 146 151 147 136 126 137 150 134 114 165 189 178 183 191 191 193 192 192 190 184 194 196
9 7 4 357 348 344 329 268 213 200 190 187 184 179 177 170 168 164 164 159 151 152 160 151 133 124 119 123 94 40 340 315 250 214 190 182 193 196 193 197 194 194 200
359 357 357 351 342 334 317 287 238 200 178 178 171 163 167 166 165 173 163 160 158 149 151 151 141 134 138 140 129 115 341 328 308 262 199 191 196 193 198 204 201 201 200
353 351 349 342 337 329 322 313 321 103 118 141 163 172 177 166 164 164 165 157 164 161 167 169 159 152 158 175 157 148 162 222 283 309 261 210 191 195 204 203 205 206 203
345 343 343 340 337 333 331 332 302 218 202 192 176 167 162 158 152 154 165 162 167 169 174 181 172 164 153 167 186 191 172 162 170 283 317 297 218 202 204 208 207 205 202
343 343 341 341 343 340 339 331 307 248 213 168 151 152 155 151 148 156 160 162 169 169 178 180 169 170 165 170 177 178 180 178 162 168 255 296 300 249 218 211 204 204 202
345 345 345 346 347 348 350 350 341 286 165 154 163 164 162 148 145 168 165 171 170 166 174 180 186 188 190 187 189 183 173 173 187 181 205 232 252 267 248 226 211 207 202